Location: Montclair
(37.8322°N, 122.2092°W)
Time: 05:52:40
(UTC+00:00)

Cosmos 1606 Rocket - Pass Details

Date: 07 December 2024
Orbit: 599 x 625 km, 82.5° (Epoch: 18 January)

Event Time Altitude Azimuth Distance (km) Brightness Sun altitude
Rises 01:24:03 0° 195° (SSW) 2,834 7.6 -7.0°
Reaches altitude 10° 01:26:17 10° 199° (SSW) 1,934 6.8 -7.4°
Maximum altitude 01:30:30 58° 279° (W) 703 4.2 -8.1°
Drops below altitude 10° 01:34:44 10° 359° (N) 1,946 5.9 -8.9°
Sets 01:36:59 0° 3° (N) 2,854 6.7 -9.3°
